OpenBCM V1.08-5-g2f4a (Linux)

Packet Radio Mailbox

IZ3LSV

[San Dona' di P. JN]

 Login: GUEST





  
LU9DCE > KEPS     03.09.16 22:02l 183 Lines 8995 Bytes #999 (0) @ WW
BID : 7570_LU9DCE
Read: GUEST
Subj: TLE OF sep 2016
Path: IZ3LSV<IW8PGT<CX2SA<LU9DCE
Sent: 160903/2057Z @:LU9DCE.TOR.BA.ARG.SOAM #:7570 [TORTUGUITAS] $:7570_LU9DCE
From: LU9DCE@LU9DCE.TOR.BA.ARG.SOAM
To  : KEPS@ALL

OSCAR 3
1 01293U 65016F   16246.42457312  .00000246  00000-0  18237-3 0  9996
2 01293  70.0727 232.4896 0020559 256.9473 102.9343 14.06091302629893
OSCAR 5
1  4321U 70008B   16246.63572707 -.00000028 +00000-0 +10998-3 0  9992
2  4321 101.7918 310.7559 0027725 004.2923 153.9325 12.52169100130045
OSCAR 6
1  6236U 72082B   16246.46690400 -.00000033 +00000-0 +68740-4 0  9990
2  6236 101.6611 210.2538 0004164 150.2415 323.9128 12.53132457007186
OSCAR 7
1 07530U 74089B   16247.51780869 -.00000036  00000-0  49080-4 0  9992
2 07530 101.5834 216.3916 0012048 156.6093 322.5488 12.53622901912939
OSCAR 8
1 10703U 78026B   16247.55107760 -.00000161  00000-0 -81591-4 0  9993
2 10703  98.8411 213.3294 0007035  55.3886  55.4863 13.99203655964506
OSCAR 10
1 14129U 83058B   16246.31966679 -.00000084 +00000-0 +00000-0 0  9990
2 14129 026.8187 080.5639 6005755 228.2970 355.0718 02.05866695221898
OSCAR 11 (UoSAT 2)
1 14781U 84021B   16247.17895301  .00000279  00000-0  40811-4 0  9996
2 14781  97.7417 296.7632 0009859  64.5228 295.7004 14.82785353747811
OSCAR 16 (PACSAT)
1 20439U 90005D   16247.42169412  .00000052  00000-0  35298-4 0  9999
2 20439  98.5769 183.1141 0009757 291.6512 180.9645 14.32644034390340
OSCAR 17 (DOVE)
1 20440U 90005E   16247.42817692  .00000038  00000-0  30065-4 0  9992
2 20440  98.5577 182.6122 0009682 276.0271 195.7845 14.33034720390575
OSCAR 18 (WEBERSAT)
1 20441U 90005F   16246.62031398 +.00000020 +00000-0 +23303-4 0  9993
2 20441 098.5610 181.1358 0010366 288.2845 197.2301 14.32691347390085
OSCAR 19 (LUSAT)
1 20442U 90005G   16247.41733538  .00000041  00000-0  31190-4 0  9993
2 20442  98.5459 181.2815 0010602 276.3185  83.6792 14.32827660390557
JAS 1B (FUJI 2)
1 20480U 90013C   16247.54032244 -.00000027  00000-0  19548-4 0  9992
2 20480  99.0216  68.8845 0539698 320.7191 101.3540 12.83412193244957
COSMOS 2123
1 21089U 91007A   16247.56184894  .00000034  00000-0  20112-4 0  9999
2 21089  82.9215 110.5728 0028991 183.9741 238.0670 13.74638338283235
OSCAR 22 (UoSAT 5)
1 21575U 91050B   16247.54389198  .00000048  00000-0  29418-4 0  9992
2 21575  98.7634 251.0081 0008441  75.6586 284.5538 14.40756054320006
OSCAR 23 (KITSAT 1)
1 22077U 92052B   16247.38786749 -.00000062  00000-0 -28936-5 0  9991
2 22077  66.0835 207.2994 0008138 209.7106 323.2974 12.86514893130490
KITSAT B
1 22825U 93061C   16247.45326592  .00000010  00000-0  21340-4 0  9999
2 22825  98.7671 204.2151 0009558  88.9505 271.2772 14.29966119196424
POSAT 1
1 22826U 93061D   16247.47992235  .00000024  00000-0  26790-4 0  9994
2 22826  98.7615 204.3570 0010089  80.8416 279.3907 14.30291864196599
ITAMSAT
1 22828U 93061F   16247.47043459  .00000013  00000-0  22237-4 0  9991
2 22828  98.7523 203.2648 0010849  52.8673 307.3498 14.30601866164949
EYESAT A
1 22829U 93061G   16247.53757949  .00000026  00000-0  27122-4 0  9997
2 22829  98.7561 205.8283 0010593  44.6580  71.9634 14.30938304197073
RADIO ROSTO
1 23439U 94085A   16246.39324296 -.00000013 +00000-0 +83010-3 0  9994
2 23439 064.8193 324.6576 0166912 294.6224 147.4948 11.27564918892966
JAS 2
1 24278U 96046B   16246.59158660 -.00000042 +00000-0 -60785-5 0  9996
2 24278 098.5827 161.6721 0350597 002.3967 357.8755 13.53070528989723
TMSAT
1 25396U 98043C   16247.42538160  .00000036  00000-0  33924-4 0  9992
2 25396  98.5452 192.5123 0003833  83.5037 276.6578 14.24405122943345
TECHSAT 1B
1 25397U 98043D   16247.43752967 -.00000001  00000-0  18573-4 0  9993
2 25397  98.5723 190.3699 0002381 101.1125 259.0321 14.23601248942990
SEDSAT 1
1 25509U 98061B   16247.38968953  .00000309  00000-0  49613-4 0  9995
2 25509  31.4314 252.2986 0347118   8.7294 351.9178 14.30221510933050
PAN SAT
1 25520U 98064B   16246.15922822 +.00001852 +00000-0 +58254-4 0  9995
2 25520 028.4570 145.4296 0005331 051.8475 308.2600 15.27856413989866
ISS (ZARYA)
1 25544U 98067A   16247.38154898  .00005870  00000-0  94924-4 0  9998
2 25544  51.6459  27.8631 0002903 285.6464 178.2927 15.54396658 17150
OSCAR 36 (UOSAT 12)
1 25693U 99021A   16247.48617133  .00000008  00000-0  19394-4 0  9997
2 25693  64.5556 289.2500 0005430 310.4818  49.5813 14.80674046937718
OPAL
1 26063U 00004C   16246.44915606  .00000026  00000-0  28721-4 0  9997
2 26063 100.1926 190.9285 0037046  40.4872 319.9055 14.36629597870062
SAUDISAT 1A
1 26545U 00057A   16247.44921294  .00000191  00000-0  40022-4 0  9992
2 26545  64.5531 256.3650 0056252 267.7007  91.7659 14.84606814861772
TIUNGSAT 1
1 26548U 00057D   16247.22492929  .00000392  00000-0  57714-4 0  9998
2 26548  64.5511 176.6613 0050293 262.8626  96.6763 14.88803579863377
SAUDISAT 1B
1 26549U 00057E   16247.51212454  .00000210  00000-0  43290-4 0  9997
2 26549  64.5543 288.5701 0060034 271.1660  88.2569 14.83233494861129
AMSAT OSCAR 40
1 26609U 00072B   16246.45613706 -.00000225 +00000-0 +00000-0 0  9993
2 26609 007.4427 285.0523 7972343 015.7906 359.2567 01.25587760072600
PCSAT
1 26931U 01043C   16246.59993012 +.00000016 +00000-0 +38096-4 0  9993
2 26931 067.0506 113.1897 0005546 262.9855 097.0616 14.30421908779143
SAPPHIRE
1 26932U 01043D   16246.59753237 -.00000016 +00000-0 +25623-4 0  9990
2 26932 067.0555 115.1314 0005774 245.4720 114.5780 14.30222063779175
RUBIN 2
1 27605U 02058A   16247.47249403  .00000039  00000-0  26525-4 0  9994
2 27605  64.5542 263.3558 0060223 199.3901 160.4911 14.74827494737194
SAUDISAT 1C
1 27607U 02058C   16246.51564835  .00000161  00000-0  43917-4 0  9999
2 27607  64.5547 284.5782 0059587 199.7901 160.0890 14.75201257736678
MOZHAYETS 4
1 27939U 03042A   16247.54421453  .00000264  00000-0  56081-4 0  9993
2 27939  97.9001  36.2472 0014202  59.7448  14.8766 14.66444413691306
AMSAT ECHO
1 28375U 04025K   16247.40772645  .00000069  00000-0  33392-4 0  9990
2 28375  98.3308 181.2279 0083817  68.8197 292.1923 14.41794572640499
HAMSAT
1 28650U 05017B   16247.52314464  .00000805  00000-0  92265-4 0  9994
2 28650  97.6152 226.2731 0023790   3.9001 356.2397 14.88382259613522
SSETI-EXPRESS
1 28894U 05043E   16247.50826481  .00000124  00000-0  33906-4 0  9999
2 28894  97.8494  52.6337 0016751 347.1492  12.9281 14.61370701578463
MOZ.5/SAFIR/RUBIN 5/SL-8
1 28898U 05043G   16247.47209609  .00000114  00000-0  32728-4 0  9996
2 28898  97.8894  44.3740 0020085  13.3895 346.7835 14.60122265577990
PEHUENSAT 1
1 29712U 07001D   16247.55049372  .00008272  00000-0  50828-3 0  9999
2 29712  97.5762 268.6854 0007936 167.3172 192.8259 15.10301400524046
DELFI C3
1 32789U 08021G   16246.60166727 +.00003169 +00000-0 +23597-3 0  9992
2 32789 097.5980 304.4612 0013103 005.8001 354.3374 15.03587239453533
YUBELEINY
1 32953U 08025A   16247.51541924  .00000004  00000-0 -43693-4 0  9992
2 32953  82.5004  57.9325 0018926 189.0615 171.0126 12.43071258375804
PRISM (HITOMI)
1 33493U 09002B   16247.51236542  .00001244  00000-0  11913-3 0  9990
2 33493  98.2063 111.2587 0014540 312.4617  47.5403 14.95094869412932
STARS (KUKAI)
1 33498U 09002G   16247.50687626  .00000652  00000-0  97239-4 0  9995
2 33498  98.2976  46.2919 0011030 181.8342 219.3849 14.78317530409540
KKS-1 (KISEKI)
1 33499U 09002H   16247.48838395  .00000347  00000-0  59506-4 0  9990
2 33499  98.2988  39.0683 0008742 199.8375 160.2495 14.75036872409098
SUMBANDILA
1 35870U 09049F   16247.49190022  .00008232  00000-0  14993-3 0  9996
2 35870  97.1177 261.3168 0002727  78.8676  78.5034 15.49729587388760
XIWANG-1 (HOPE-1)
1 36122U 09072B   16247.49601612 -.00000014  00000-0  73810-4 0  9990
2 36122 100.1366 280.1623 0007633 171.2727 188.8520 13.16335821322913
JUGNU
1 37839U 11058B   16247.55876315  .00000331  00000-0  34542-4 0  9994
2 37839  19.9623  28.3950 0018914 264.3042 163.1985 14.12550868253129
SRMSAT
1 37841U 11058D   16247.56144084  .00000292  00000-0  15331-4 0  9990
2 37841  19.9724  64.1687 0011832 172.9105 229.3027 14.10548773252766
RAX-2
1 37853U 11061D   16247.46726452  .00003368  00000-0  20062-3 0  9994
2 37853 101.7079 324.0869 0179907 212.8666 146.1253 15.00049825263635
AUBIESAT-1
1 37854U 11061E   16247.48746143  .00004766  00000-0  26753-3 0  9992
2 37854 101.6991 329.6100 0172182 202.5429 156.8152 15.02559166263854
M-CUBED/EXP-1 PRIME
1 37855U 11061F   16247.49611933  .00005337  00000-0  29268-3 0  9991
2 37855 101.7125 327.6366 0185595 207.3934 151.7396 15.01488388263741
CHIBIS-M
1 38051U 11062C   14288.65876392  .70201582  12497-4  27925-2 0  9995
2 38051 051.5964 324.1908 0006422 269.6897 186.8903 16.43533377153081
MASAT-1
1 38081U 12006E   15009.86954674  .36181825  49011-5  43735-3 0  9992
2 38081 069.4150 141.5751 0006093 101.2598 259.4750 16.49686879155248

======================================================================
Tan fácil como 3,14159265358979323846264338327950288419716
======================================================================
        __  __  __ __
|  /  \(__\|  \/  |_    BBS GF05OM TORTUGUITAS 145010Mhz
|__\__/ __/|__/\__|__   TELNET LU9DCE.DYNU.COM PORT 6300
== power by linux ===   NODO LU9DCE.DYNU.COM PORT 3694

*** https://www.facebook.com/groups/newpacketradio/



Read previous mail | Read next mail


 22.12.2024 09:53:20lGo back Go up